| time (UTC) | temp F | wind direction | speed MPH | gust MPH | rain 1hr in | rain 24hr in | rain mn in | humidity % | barometer mb |
| 20260831091520 | 72 | 115 | 0.0 | 0.0 | 0.00 | 0.00 | 0.00 | 94 | 1017.0 |
| 20260831084528 | 72 | 115 | 0.0 | 0.0 | 0.00 | 0.00 | 0.00 | 94 | 1017.0 |
| 20260831083043 | 72 | 115 | 0.0 | 0.0 | 0.00 | 0.00 | 0.00 | 93 | 1017.0 |
| 20260831081512 | 73 | 115 | 0.0 | 0.0 | 0.00 | 0.00 | 0.00 | 94 | 1017.1 |
| 20260831080037 | 73 | 115 | 0.0 | 0.0 | 0.00 | 0.00 | 0.00 | 93 | 1016.9 |
| 20260831074530 | 73 | 115 | 0.0 | 0.0 | 0.00 | 0.00 | 0.00 | 93 | 1017.1 |
| 20260831073033 | 73 | 115 | 0.0 | 0.0 | 0.00 | 0.00 | 0.00 | 93 | 1017.0 |
| 20260831071542 | 73 | 115 | 0.0 | 0.0 | 0.00 | 0.00 | 0.00 | 93 | 1017.1 |
| 20260831070018 | 73 | 115 | 0.0 | 0.0 | 0.00 | 0.00 | 0.00 | 92 | 1017.1 |
| 20260831064528 | 73 | 115 | 0.0 | 0.0 | 0.00 | 0.00 | 0.00 | 92 | 1017.3 |
| 20260831063028 | 73 | 115 | 0.0 | 0.0 | 0.00 | 0.00 | 0.00 | 92 | 1017.5 |
| 20260831061530 | 73 | 115 | 0.0 | 0.0 | 0.00 | 0.00 | 0.00 | 92 | 1017.5 |
| 20260831060035 | 74 | 115 | 0.0 | 0.0 | 0.00 | 0.00 | 0.00 | 92 | 1017.7 |
| 20260831053027 | 74 | 115 | 0.0 | 0.0 | 0.00 | 0.00 | 0.00 | 91 | 1017.7 |
| 20260831051533 | 74 | 115 | 0.0 | 0.0 | 0.00 | 0.00 | 0.00 | 90 | 1017.8 |
| 20260831050010 | 74 | 115 | 0.0 | 0.0 | 0.00 | 0.00 | 0.00 | 90 | 1017.8 |
| 20260831044545 | 75 | 115 | 0.0 | 0.0 | 0.00 | 0.00 | 0.00 | 90 | 1017.8 |
| 20260831043022 | 75 | 115 | 0.0 | 0.0 | 0.00 | 0.00 | 0.00 | 90 | 1017.8 |
| 20260831041533 | 75 | 115 | 0.0 | 0.0 | 0.00 | 0.00 | 0.00 | 89 | 1017.9 |
| 20260831034513 | 76 | 115 | 0.0 | 0.0 | 0.00 | 0.00 | 0.00 | 88 | 1017.9 |
| 20260831033100 | 77 | 107 | 0.0 | 0.0 | 0.00 | 0.00 | 0.00 | 88 | 1018.0 |
| 20260831031533 | 77 | 107 | 0.0 | 0.0 | 0.00 | 0.00 | 0.00 | 87 | 1017.8 |
| 20260831030028 | 77 | 107 | 0.0 | 0.0 | 0.00 | 0.00 | 0.00 | 86 | 1017.9 |
| 20260831024531 | 78 | 109 | 0.0 | 0.0 | 0.00 | 0.00 | 0.00 | 86 | 1017.8 |
| 20260831023015 | 78 | 115 | 0.0 | 0.0 | 0.00 | 0.00 | 0.00 | 86 | 1017.7 |
| 20260831021525 | 78 | 122 | 0.0 | 0.0 | 0.00 | 0.00 | 0.00 | 86 | 1017.6 |
| 20260831020030 | 78 | 122 | 0.0 | 0.0 | 0.00 | 0.00 | 0.00 | 85 | 1017.5 |
| 20260831014530 | 79 | 122 | 0.0 | 0.0 | 0.00 | 0.00 | 0.00 | 85 | 1017.3 |
| 20260831013031 | 79 | 131 | 0.0 | 0.0 | 0.00 | 0.00 | 0.00 | 84 | 1017.0 |
| 20260831011516 | 80 | 110 | 0.0 | 0.0 | 0.00 | 0.00 | 0.00 | 84 | 1016.7 |
| 20260831010030 | 81 | 121 | 0.0 | 0.0 | 0.00 | 0.00 | 0.00 | 81 | 1016.7 |
| 20260831004530 | 82 | 148 | 0.0 | 0.0 | 0.00 | 0.00 | 0.00 | 80 | 1016.6 |
| 20260831003032 | 84 | 148 | 0.0 | 0.0 | 0.00 | 0.00 | 0.00 | 77 | 1016.3 |
| 20260831001537 | 86 | 148 | 0.0 | 2.0 | 0.00 | 0.00 | 0.00 | 73 | 1016.2 |
| 20260831000020 | 88 | 195 | 0.0 | 2.0 | 0.00 | 0.00 | 0.00 | 69 | 1016.1 |
| 20260830234527 | 88 | 225 | 1.0 | 3.0 | 0.00 | 0.00 | 0.00 | 68 | 1016.1 |
| 20260830233036 | 88 | 218 | 1.0 | 7.0 | 0.00 | 0.00 | 0.00 | 68 | 1016.1 |
| 20260830231531 | 90 | 167 | 2.0 | 8.0 | 0.00 | 0.00 | 0.00 | 66 | 1016.2 |
| 20260830230031 | 89 | 110 | 3.0 | 9.0 | 0.00 | 0.00 | 0.00 | 65 | 1016.1 |
| 20260830224517 | 90 | 89 | 0.0 | 3.0 | 0.00 | 0.00 | 0.00 | 60 | 1016.0 |
| 20260830223024 | 93 | 157 | 1.0 | 4.0 | 0.00 | 0.00 | 0.00 | 57 | 1016.0 |
| 20260830220030 | 94 | 49 | 1.0 | 3.0 | 0.00 | 0.00 | 0.00 | 53 | 1015.8 |
| 20260830214533 | 92 | 100 | 0.0 | 1.0 | 0.00 | 0.00 | 0.00 | 58 | 1015.9 |
| 20260830213018 | 94 | 27 | 1.0 | 5.0 | 0.00 | 0.00 | 0.00 | 53 | 1016.0 |
| 20260830211524 | 94 | 160 | 0.0 | 4.0 | 0.00 | 0.00 | 0.00 | 56 | 1016.0 |
| 20260830210022 | 94 | 72 | 2.0 | 4.0 | 0.00 | 0.00 | 0.00 | 55 | 1016.3 |
| 20260830204534 | 91 | 355 | 1.0 | 1.0 | 0.00 | 0.00 | 0.00 | 61 | 1016.5 |
| 20260830203028 | 92 | 88 | 2.0 | 5.0 | 0.00 | 0.00 | 0.00 | 58 | 1016.6 |
| 20260830201531 | 94 | 23 | 1.0 | 5.0 | 0.00 | 0.00 | 0.00 | 55 | 1016.7 |
| 20260830200030 | 95 | 22 | 2.0 | 5.0 | 0.00 | 0.00 | 0.00 | 54 | 1016.8 |
| 20260830194514 | 94 | 152 | 1.0 | 7.0 | 0.00 | 0.00 | 0.00 | 54 | 1017.0 |
| 20260830193030 | 93 | 82 | 2.0 | 7.0 | 0.00 | 0.00 | 0.00 | 58 | 1017.3 |
| 20260830191535 | 94 | 112 | 4.0 | 7.0 | 0.00 | 0.00 | 0.00 | 58 | 1017.4 |
| 20260830190028 | 92 | 114 | 1.0 | 6.0 | 0.00 | 0.00 | 0.00 | 59 | 1017.6 |
| 20260830184536 | 91 | 96 | 4.0 | 7.0 | 0.00 | 0.00 | 0.00 | 61 | 1017.9 |
| 20260830183021 | 92 | 131 | 2.0 | 5.0 | 0.00 | 0.00 | 0.00 | 62 | 1017.9 |
| 20260830181516 | 90 | 217 | 2.0 | 6.0 | 0.00 | 0.00 | 0.00 | 65 | 1018.3 |
| 20260830180024 | 91 | 115 | 2.0 | 7.0 | 0.00 | 0.00 | 0.00 | 63 | 1018.5 |
| 20260830174530 | 89 | 89 | 2.0 | 6.0 | 0.00 | 0.00 | 0.00 | 66 | 1018.8 |
| 20260830173027 | 89 | 81 | 1.0 | 4.0 | 0.00 | 0.00 | 0.00 | 67 | 1018.9 |
| 20260830171518 | 90 | 327 | 2.0 | 6.0 | 0.00 | 0.00 | 0.00 | 64 | 1019.3 |
| 20260830170017 | 90 | 114 | 2.0 | 6.0 | 0.00 | 0.00 | 0.00 | 66 | 1019.4 |
| 20260830164524 | 88 | 155 | 2.0 | 5.0 | 0.00 | 0.00 | 0.00 | 68 | 1019.5 |
| 20260830163030 | 89 | 67 | 0.0 | 6.0 | 0.00 | 0.00 | 0.00 | 70 | 1019.5 |
| 20260830161528 | 87 | 52 | 2.0 | 5.0 | 0.00 | 0.00 | 0.00 | 70 | 1019.5 |
| 20260830160020 | 88 | 115 | 0.0 | 5.0 | 0.00 | 0.00 | 0.00 | 71 | 1019.6 |
| 20260830154528 | 86 | 67 | 2.0 | 6.0 | 0.00 | 0.00 | 0.00 | 72 | 1019.6 |
| 20260830153033 | 87 | 359 | 1.0 | 3.0 | 0.00 | 0.00 | 0.00 | 74 | 1019.5 |
| 20260830151530 | 86 | 210 | 2.0 | 7.0 | 0.00 | 0.00 | 0.00 | 75 | 1019.5 |
| 20260830144516 | 84 | 334 | 1.0 | 6.0 | 0.00 | 0.00 | 0.00 | 77 | 1019.5 |
| 20260830143027 | 84 | 316 | 1.0 | 7.0 | 0.00 | 0.00 | 0.00 | 78 | 1019.5 |
| 20260830141527 | 83 | 26 | 1.0 | 4.0 | 0.00 | 0.00 | 0.00 | 80 | 1019.5 |
| 20260830140030 | 82 | 115 | 0.0 | 4.0 | 0.00 | 0.00 | 0.00 | 82 | 1019.5 |
| 20260830134539 | 80 | 263 | 1.0 | 6.0 | 0.00 | 0.00 | 0.00 | 83 | 1019.4 |
| 20260830133024 | 80 | 147 | 1.0 | 4.0 | 0.00 | 0.00 | 0.00 | 85 | 1019.4 |
| 20260830131527 | 79 | 127 | 0.0 | 1.0 | 0.00 | 0.00 | 0.00 | 85 | 1019.3 |
| 20260830130029 | 77 | 346 | 0.0 | 1.0 | 0.00 | 0.00 | 0.00 | 91 | 1019.2 |
| 20260830124533 | 74 | 73 | 0.0 | 3.0 | 0.00 | 0.00 | 0.00 | 95 | 1019.2 |
| 20260830123007 | 73 | 124 | 0.0 | 0.0 | 0.00 | 0.00 | 0.00 | 95 | 1019.1 |
| 20260830121505 | 72 | 124 | 0.0 | 0.0 | 0.00 | 0.00 | 0.00 | 95 | 1018.8 |
| 20260830120003 | 72 | 124 | 0.0 | 0.0 | 0.00 | 0.00 | 0.00 | 95 | 1018.6 |
| 20260830114508 | 71 | 124 | 0.0 | 0.0 | 0.00 | 0.00 | 0.00 | 95 | 1018.7 |
| 20260830113014 | 71 | 124 | 0.0 | 0.0 | 0.00 | 0.00 | 0.00 | 95 | 1018.5 |
| 20260830111514 | 70 | 124 | 0.0 | 0.0 | 0.00 | 0.00 | 0.00 | 94 | 1018.4 |
| 20260830110005 | 70 | 124 | 0.0 | 0.0 | 0.00 | 0.00 | 0.00 | 94 | 1018.2 |
| 20260830104510 | 71 | 124 | 0.0 | 0.0 | 0.00 | 0.00 | 0.00 | 94 | 1018.0 |
| 20260830103005 | 71 | 124 | 0.0 | 0.0 | 0.00 | 0.00 | 0.00 | 95 | 1017.8 |
| 20260830101522 | 71 | 124 | 0.0 | 0.0 | 0.00 | 0.00 | 0.00 | 94 | 1017.8 |
| 20260830100007 | 71 | 124 | 0.0 | 0.0 | 0.00 | 0.00 | 0.00 | 94 | 1017.6 |
| 20260830094510 | 71 | 124 | 0.0 | 0.0 | 0.00 | 0.00 | 0.00 | 94 | 1017.8 |
| 20260830093012 | 72 | 124 | 0.0 | 0.0 | 0.00 | 0.00 | 0.00 | 94 | 1017.6 |